Showing default

IRIDIUM 117, 42808

Orbit data source: Space-Track

IRIDIUM 117, 42808 is a payload satellite owned by Iridium (US) in LEO that was launched on Sun, 25 Jun 2017 UTC via an FALCON 9 launch vehicle from the Air Force Western Test Range (AFWTR). Payloads include a variety of satellites, spacecraft, and rockets equipped with specific instruments for various scientific and technological missions. These include communications satellites like Starlink; space stations such as the ISS; scientific satellites like the Hubble; Earth observation satellites from companies like Planet Labs, Umbra, and HawkEye 360; GPS; miniature CubeSats for education and research; and military/defense satellites.

Loading next visibility...
IRIDIUM 117 details
Identifier
42808, 2017-039F
Orbit
LEO
Last TLE update10 hours ago
Origin
Flag of USIridium (US)
ManufacturerOATK SSG Gilbert
MissionOperational Commercial Communications
Bus & MotorELITEBUS, Unknown motor
Mass860 kg wet, 700 kg dry
Launch date (UTC)
2017-06-25 (8 years ago)
Launch vehicle
FALCON 9
Launch site
Air Force Western Test Range (AFWTR)
Object type
Payload
Rocket body
Debris
Shape & HBRTrap Box + 2 Pan, 9.4 m
Radar Cross Section14.423 m², Large (>1 m²)

Expand to show TLE details & history

TLE from 10 hours ago
0 IRIDIUM 117
1 42808U 17039F   25018.58044694  .00000092  00000-0  25831-4 0  9992
2 42808  86.3970 208.6172 0001952 100.4981 259.6435 14.34217707396214
Epoch: 2025-01-18T13:55Z
Definitive object data (Epoch: 2025-01-18T13:55:50.615Z)
Latitude-0.00001°
Longitude-118.57139°
Altitude780.97 km
Speed7.463 km/s
True Right ascension13h 54m 28s
True Declination0° 00' 00"
Sunlit
Object was in daylight at TLE epoch
Visualization TLE readout
Latitude-15.11255°
Longitude-119.71427°
Altitude784.465 km
Speed7.46 km/s
Apparent Right ascension13h 24m 28s
Apparent Declination-26° 50' 37"
Sunlit
Object is in daylight
Visualization observer readout
Local Sidereal Time00:48:31
Azimuth327.535° NNW
Elevation-74.945°
Doppler factor1
Orbital elements
Apogee altitude776.028 km
Perigee altitude773.236 km
Semi-major axis7,152.769 km
Eccentricity0.0001952
Inclination86.397°
RAAN208.6172°
Arg. of periapsis100.4981°
True anomaly259.6215°
Mean anomaly259.6435°
Eccentric anomaly259.6325°
Mean motion3.58783 °/min
BSTAR0.000025831
Orbital period100.34 mins
Loading maneuver chart data...
Loading historical data...
Loading historical data...
Loading historical data...
Loading historical data...
Loading historical data...
Loading historical data...
Loading historical data...

IRIDIUM 117 Visibility forecast

Observer location: undefined°, undefined

Span
Click to sort rows by Start time (UTC) header in descending order
Start Az.
Max El. time (UTC)
Max El. Az.
Max El.
End time (UTC)
End Az.
9 mins2025-01-19 00:33:26.448Z3.028° NNE2025-01-19 00:37:26.448Z65.591° ENE43.558°2025-01-19 00:42:26.448Z171.403° S
5 mins2025-01-19 11:51:26.448Z104.981° ESE2025-01-19 11:53:26.448Z78.193° E16.378°2025-01-19 11:56:26.448Z41.666° NE
8 mins2025-01-19 13:30:26.448Z207.93° SW2025-01-19 13:33:26.448Z269.102° W38.032°2025-01-19 13:38:26.448Z351.536° N
|